Time,TemperatureF,DewpointF,PressureIn,WindDirection,WindDirectionDegrees,WindSpeedMPH,WindSpeedGustMPH,Humidity,HourlyPrecipIn,Conditions,Clouds,dailyrainin,SolarRadiationWatts/m^2,SoftwareType,DateUTC
2013-02-04 00:01:00,31.0,27.0,-100.00,North,5,4.0,10.0,86,0.00,,,0.00,0.000000,,2013-02-04 07:01:00,
2013-02-04 00:11:00,31.0,27.0,-100.00,North,5,4.0,10.0,86,0.00,,,0.00,0.000000,,2013-02-04 07:11:00,
2013-02-04 00:21:00,31.0,27.0,-100.00,North,5,4.0,10.0,86,0.00,,,0.00,0.000000,,2013-02-04 07:21:00,
2013-02-04 00:31:00,31.0,27.0,-100.00,North,5,4.0,10.0,86,0.00,,,0.00,0.000000,,2013-02-04 07:31:00,
2013-02-04 00:41:00,31.0,27.0,-100.00,North,5,4.0,10.0,86,0.00,,,0.00,0.000000,,2013-02-04 07:41:00,
2013-02-04 01:01:00,31.0,27.0,-100.00,NNE,29,5.0,8.0,85,0.00,,,0.00,0.000000,,2013-02-04 08:01:00,
2013-02-04 01:11:00,31.0,27.0,-100.00,NNE,29,5.0,8.0,85,0.00,,,0.00,0.000000,,2013-02-04 08:11:00,
2013-02-04 01:21:00,31.0,27.0,-100.00,NNE,29,5.0,8.0,85,0.00,,,0.00,0.000000,,2013-02-04 08:21:00,
2013-02-04 01:31:00,31.0,27.0,-100.00,NNE,29,5.0,8.0,85,0.00,,,0.00,0.000000,,2013-02-04 08:31:00,
2013-02-04 01:41:00,31.0,27.0,-100.00,NNE,29,5.0,8.0,85,0.00,,,0.00,0.000000,,2013-02-04 08:41:00,
2013-02-04 02:02:00,30.0,25.0,-100.00,North,6,4.0,7.0,82,0.00,,,0.00,0.000000,,2013-02-04 09:02:00,
2013-02-04 02:11:00,30.0,25.0,-100.00,North,6,4.0,7.0,82,0.00,,,0.00,0.000000,,2013-02-04 09:11:00,
2013-02-04 02:21:00,30.0,25.0,-100.00,North,6,4.0,7.0,82,0.00,,,0.00,0.000000,,2013-02-04 09:21:00,
2013-02-04 02:31:00,30.0,25.0,-100.00,North,6,4.0,7.0,82,0.00,,,0.00,0.000000,,2013-02-04 09:31:00,
2013-02-04 02:41:00,30.0,25.0,-100.00,North,6,4.0,7.0,82,0.00,,,0.00,0.000000,,2013-02-04 09:41:00,
2013-02-04 03:01:00,29.0,25.0,-100.00,NNE,24,4.0,9.0,85,0.00,,,0.00,0.000000,,2013-02-04 10:01:00,
2013-02-04 03:11:00,29.0,25.0,-100.00,NNE,24,4.0,9.0,85,0.00,,,0.00,0.000000,,2013-02-04 10:11:00,
2013-02-04 03:21:00,29.0,25.0,-100.00,NNE,24,4.0,9.0,85,0.00,,,0.00,0.000000,,2013-02-04 10:21:00,
2013-02-04 03:32:00,29.0,25.0,-100.00,NNE,24,4.0,9.0,85,0.00,,,0.00,0.000000,,2013-02-04 10:32:00,
2013-02-04 03:41:00,29.0,25.0,-100.00,NNE,24,4.0,9.0,85,0.00,,,0.00,0.000000,,2013-02-04 10:41:00,
2013-02-04 04:01:00,27.0,24.0,-100.00,NE,41,0.0,7.0,87,0.00,,,0.00,0.000000,,2013-02-04 11:01:00,
2013-02-04 04:11:00,27.0,24.0,-100.00,NE,41,0.0,7.0,87,0.00,,,0.00,0.000000,,2013-02-04 11:11:00,
2013-02-04 04:22:00,27.0,24.0,-100.00,NE,41,0.0,7.0,87,0.00,,,0.00,0.000000,,2013-02-04 11:22:00,
2013-02-04 04:32:00,27.0,24.0,-100.00,NE,41,0.0,7.0,87,0.00,,,0.00,0.000000,,2013-02-04 11:32:00,
2013-02-04 04:41:00,27.0,24.0,-100.00,NE,41,0.0,7.0,87,0.00,,,0.00,0.000000,,2013-02-04 11:41:00,
2013-02-04 05:02:00,26.0,23.0,-100.00,North,351,4.0,6.0,88,0.00,,,0.00,0.000000,,2013-02-04 12:02:00,
2013-02-04 05:12:00,26.0,23.0,-100.00,North,351,4.0,6.0,88,0.00,,,0.00,0.000000,,2013-02-04 12:12:00,
2013-02-04 05:21:00,26.0,23.0,-100.00,North,351,4.0,6.0,88,0.00,,,0.00,0.000000,,2013-02-04 12:21:00,
2013-02-04 05:32:00,26.0,23.0,-100.00,North,351,4.0,6.0,88,0.00,,,0.00,0.000000,,2013-02-04 12:32:00,
2013-02-04 05:42:00,26.0,23.0,-100.00,North,351,4.0,6.0,88,0.00,,,0.00,0.000000,,2013-02-04 12:42:00,
2013-02-04 06:02:00,25.0,22.0,-100.00,NE,47,3.0,6.0,90,0.00,,,0.00,0.000000,,2013-02-04 13:02:00,
2013-02-04 06:11:00,25.0,22.0,-100.00,NE,47,3.0,6.0,90,0.00,,,0.00,0.000000,,2013-02-04 13:11:00,
2013-02-04 06:21:00,25.0,22.0,-100.00,NE,47,3.0,6.0,90,0.00,,,0.00,0.000000,,2013-02-04 13:21:00,
2013-02-04 06:32:00,25.0,22.0,-100.00,NE,47,3.0,6.0,90,0.00,,,0.00,0.000000,,2013-02-04 13:32:00,
2013-02-04 06:41:00,25.0,22.0,-100.00,NE,47,3.0,6.0,90,0.00,,,0.00,0.000000,,2013-02-04 13:41:00,
2013-02-04 07:03:00,25.0,22.0,-100.00,North,353,3.0,7.0,87,0.00,,,0.00,0.000000,,2013-02-04 14:03:00,
2013-02-04 07:11:00,25.0,22.0,-100.00,North,353,3.0,7.0,87,0.00,,,0.00,0.000000,,2013-02-04 14:11:00,
2013-02-04 07:21:00,25.0,22.0,-100.00,North,353,3.0,7.0,87,0.00,,,0.00,0.000000,,2013-02-04 14:21:00,
2013-02-04 07:32:00,25.0,22.0,-100.00,North,353,3.0,7.0,87,0.00,,,0.00,0.000000,,2013-02-04 14:32:00,
2013-02-04 07:41:00,25.0,22.0,-100.00,North,353,3.0,7.0,87,0.00,,,0.00,0.000000,,2013-02-04 14:41:00,
2013-02-04 08:03:00,26.0,23.0,-100.00,NNE,12,3.0,7.0,88,0.00,,,0.00,0.000000,,2013-02-04 15:03:00,
2013-02-04 08:12:00,26.0,23.0,-100.00,NNE,12,3.0,7.0,88,0.00,,,0.00,0.000000,,2013-02-04 15:12:00,
2013-02-04 08:23:00,26.0,23.0,-100.00,NNE,12,3.0,7.0,88,0.00,,,0.00,0.000000,,2013-02-04 15:23:00,
2013-02-04 08:33:00,26.0,23.0,-100.00,NNE,12,3.0,7.0,88,0.00,,,0.00,0.000000,,2013-02-04 15:33:00,
2013-02-04 08:42:00,26.0,23.0,-100.00,NNE,12,3.0,7.0,88,0.00,,,0.00,0.000000,,2013-02-04 15:42:00,
2013-02-04 09:02:00,32.0,25.0,-100.00,East,87,3.0,6.0,74,0.00,,,0.00,224.000000,,2013-02-04 16:02:00,
2013-02-04 09:11:00,32.0,25.0,-100.00,East,87,3.0,6.0,74,0.00,,,0.00,224.000000,,2013-02-04 16:11:00,
2013-02-04 09:22:00,32.0,25.0,-100.00,East,87,3.0,6.0,74,0.00,,,0.00,224.000000,,2013-02-04 16:22:00,
2013-02-04 09:32:00,32.0,25.0,-100.00,East,87,3.0,6.0,74,0.00,,,0.00,224.000000,,2013-02-04 16:32:00,
2013-02-04 09:42:00,32.0,25.0,-100.00,East,87,3.0,6.0,74,0.00,,,0.00,224.000000,,2013-02-04 16:42:00,
2013-02-04 11:03:00,44.0,25.0,-100.00,North,352,2.0,8.0,47,-99.99,,,0.00,658.000000,,2013-02-04 18:03:00,
2013-02-04 12:02:00,44.0,23.0,-100.00,WNW,288,5.0,11.0,43,-99.99,,,0.00,802.000000,,2013-02-04 19:02:00,
2013-02-04 12:31:00,44.0,23.0,-100.00,WNW,288,5.0,11.0,43,-99.99,,,0.00,802.000000,,2013-02-04 19:31:00,
2013-02-04 12:41:00,44.0,23.0,-100.00,WNW,288,5.0,11.0,43,-99.99,,,0.00,802.000000,,2013-02-04 19:41:00,
2013-02-04 13:02:00,45.0,29.0,-100.00,WSW,248,6.0,10.0,53,0.00,,,0.00,868.000000,,2013-02-04 20:02:00,
2013-02-04 13:12:00,45.0,29.0,-100.00,WSW,248,6.0,10.0,53,0.00,,,0.00,868.000000,,2013-02-04 20:12:00,
2013-02-04 13:21:00,45.0,29.0,-100.00,WSW,248,6.0,10.0,53,0.00,,,0.00,868.000000,,2013-02-04 20:21:00,
2013-02-04 13:32:00,45.0,29.0,-100.00,WSW,248,6.0,10.0,53,0.00,,,0.00,868.000000,,2013-02-04 20:32:00,
2013-02-04 13:42:00,45.0,29.0,-100.00,WSW,248,6.0,10.0,53,0.00,,,0.00,868.000000,,2013-02-04 20:42:00,
2013-02-04 14:02:00,43.0,30.0,-100.00,WSW,238,7.0,12.0,59,0.00,,,0.00,851.000000,,2013-02-04 21:02:00,
2013-02-04 14:11:00,43.0,30.0,-100.00,WSW,238,7.0,12.0,59,0.00,,,0.00,851.000000,,2013-02-04 21:11:00,
2013-02-04 14:22:00,43.0,30.0,-100.00,WSW,238,7.0,12.0,59,0.00,,,0.00,851.000000,,2013-02-04 21:22:00,
2013-02-04 14:31:00,43.0,30.0,-100.00,WSW,238,7.0,12.0,59,0.00,,,0.00,851.000000,,2013-02-04 21:31:00,
2013-02-04 14:42:00,43.0,30.0,-100.00,WSW,238,7.0,12.0,59,0.00,,,0.00,851.000000,,2013-02-04 21:42:00,
2013-02-04 15:02:00,44.0,29.0,-100.00,WSW,245,6.0,13.0,56,0.00,,,0.00,759.000000,,2013-02-04 22:02:00,
2013-02-04 15:12:00,44.0,29.0,-100.00,WSW,245,6.0,13.0,56,0.00,,,0.00,759.000000,,2013-02-04 22:12:00,
2013-02-04 15:21:00,44.0,29.0,-100.00,WSW,245,6.0,13.0,56,0.00,,,0.00,759.000000,,2013-02-04 22:21:00,
2013-02-04 15:32:00,44.0,29.0,-100.00,WSW,245,6.0,13.0,56,0.00,,,0.00,759.000000,,2013-02-04 22:32:00,
2013-02-04 15:41:00,44.0,29.0,-100.00,WSW,245,6.0,13.0,56,0.00,,,0.00,759.000000,,2013-02-04 22:41:00,
2013-02-04 16:01:00,47.0,29.0,-100.00,West,281,4.0,11.0,50,0.00,,,0.00,601.000000,,2013-02-04 23:01:00,
2013-02-04 16:11:00,47.0,29.0,-100.00,West,281,4.0,11.0,50,0.00,,,0.00,601.000000,,2013-02-04 23:11:00,
2013-02-04 16:21:00,47.0,29.0,-100.00,West,281,4.0,11.0,50,0.00,,,0.00,601.000000,,2013-02-04 23:21:00,
2013-02-04 16:32:00,47.0,29.0,-100.00,West,281,4.0,11.0,50,0.00,,,0.00,601.000000,,2013-02-04 23:32:00,
2013-02-04 16:41:00,47.0,29.0,-100.00,West,281,4.0,11.0,50,0.00,,,0.00,601.000000,,2013-02-04 23:41:00,
2013-02-04 17:11:00,41.0,29.0,-100.00,WNW,283,5.0,8.0,62,0.00,,,0.00,225.000000,,2013-02-05 00:11:00,
2013-02-04 17:21:00,41.0,29.0,-100.00,WNW,283,5.0,8.0,62,0.00,,,0.00,225.000000,,2013-02-05 00:21:00,
2013-02-04 17:31:00,41.0,29.0,-100.00,WNW,283,5.0,8.0,62,0.00,,,0.00,225.000000,,2013-02-05 00:31:00,
2013-02-04 17:41:00,41.0,29.0,-100.00,WNW,283,5.0,8.0,62,0.00,,,0.00,225.000000,,2013-02-05 00:41:00,
2013-02-04 18:01:00,38.0,28.0,-100.00,WNW,300,4.0,8.0,67,0.00,,,0.00,84.000000,,2013-02-05 01:01:00,
2013-02-04 18:11:00,38.0,28.0,-100.00,WNW,300,4.0,8.0,67,0.00,,,0.00,84.000000,,2013-02-05 01:11:00,
2013-02-04 18:21:00,38.0,28.0,-100.00,WNW,300,4.0,8.0,67,0.00,,,0.00,84.000000,,2013-02-05 01:21:00,
2013-02-04 18:32:00,38.0,28.0,-100.00,WNW,300,4.0,8.0,67,0.00,,,0.00,84.000000,,2013-02-05 01:32:00,
2013-02-04 18:41:00,38.0,28.0,-100.00,WNW,300,4.0,8.0,67,0.00,,,0.00,84.000000,,2013-02-05 01:41:00,
2013-02-04 19:01:00,35.0,20.0,-100.00,NNW,336,4.0,6.0,55,0.00,,,0.00,2.000000,,2013-02-05 02:01:00,
2013-02-04 19:11:00,35.0,20.0,-100.00,NNW,336,4.0,6.0,55,0.00,,,0.00,2.000000,,2013-02-05 02:11:00,
2013-02-04 19:21:00,35.0,20.0,-100.00,NNW,336,4.0,6.0,55,0.00,,,0.00,2.000000,,2013-02-05 02:21:00,
2013-02-04 19:31:00,35.0,20.0,-100.00,NNW,336,4.0,6.0,55,0.00,,,0.00,2.000000,,2013-02-05 02:31:00,
2013-02-04 19:41:00,35.0,20.0,-100.00,NNW,336,4.0,6.0,55,0.00,,,0.00,2.000000,,2013-02-05 02:41:00,
2013-02-04 20:11:00,33.0,16.0,-100.00,North,353,6.0,8.0,50,0.00,,,0.00,0.000000,,2013-02-05 03:11:00,
2013-02-04 20:21:00,33.0,16.0,-100.00,North,353,6.0,8.0,50,0.00,,,0.00,0.000000,,2013-02-05 03:21:00,
2013-02-04 21:01:00,34.0,13.0,-100.00,ESE,122,7.0,13.0,42,0.00,,,0.00,0.000000,,2013-02-05 04:01:00,
2013-02-04 22:02:00,32.0,16.0,-100.00,NE,56,4.0,13.0,51,0.00,,,0.00,0.000000,,2013-02-05 05:02:00,
2013-02-04 22:11:00,32.0,16.0,-100.00,NE,56,4.0,13.0,51,0.00,,,0.00,0.000000,,2013-02-05 05:11:00,
2013-02-04 22:21:00,32.0,16.0,-100.00,NE,56,4.0,13.0,51,0.00,,,0.00,0.000000,,2013-02-05 05:21:00,
2013-02-04 22:31:00,32.0,16.0,-100.00,NE,56,4.0,13.0,51,0.00,,,0.00,0.000000,,2013-02-05 05:31:00,
2013-02-04 22:41:00,32.0,16.0,-100.00,NE,56,4.0,13.0,51,0.00,,,0.00,0.000000,,2013-02-05 05:41:00,
2013-02-04 23:01:00,32.0,15.0,-100.00,NE,40,4.0,7.0,50,0.00,,,0.00,0.000000,,2013-02-05 06:01:00,
2013-02-04 23:11:00,32.0,15.0,-100.00,NE,40,4.0,7.0,50,0.00,,,0.00,0.000000,,2013-02-05 06:11:00,
2013-02-04 23:21:00,32.0,15.0,-100.00,NE,40,4.0,7.0,50,0.00,,,0.00,0.000000,,2013-02-05 06:21:00,
2013-02-04 23:31:00,32.0,15.0,-100.00,NE,40,4.0,7.0,50,0.00,,,0.00,0.000000,,2013-02-05 06:31:00,
2013-02-04 23:41:00,32.0,15.0,-100.00,NE,40,4.0,7.0,50,0.00,,,0.00,0.000000,,2013-02-05 06:41:00,